Home > Weather > Clovis > Past weeks

Flag for U.S.A. Weather for the Past 2 Weeks in Clovis, New Mexico, U.S.A.

Now
45 °F

Clear.


Feels Like: 44 °F
Forecast: 29 / 64 °F
Wind: 3 mph from Northwest

Location: Cannon Air Force Base / Clovis

Current Time: Feb 8, 2016 at 7:03:46 PM

Latest Report: Feb 8, 2016 at 5:58 PM


Visibility: 10 mi

Pressure: 30.40 "Hg (25.94 "Hg at 1300m altitude)

Humidity: 30%

Dew point: 15 °F

Location of ClovisLocation

Historic Weather in Clovis — Graph

°F

Clovis Temperature Yesterday

Maximum temperature yesterday: 60 °F (at 1:58 PM)
Minimum temperature yesterday: 27 °F (at 11:58 PM)
Average temperature yesterday: 42 °F

High & Low Weather Summary for the Past Weeks

 TemperatureHumidityPressure
High71 °F (Jan 30, 12:58 PM)100% (Feb 1, 2:58 AM)30.51 "Hg (Feb 1, 2:58 AM)
Low14 °F (Feb 4, 5:58 AM)10% (Jan 29, 12:58 PM)29.40 "Hg (Feb 1, 11:56 AM)
Average40 °F52%30.04 "Hg
* Reported Jan 24 4:58 PM — Feb 8 4:58 PM, Clovis, Weather by CustomWeather, © 2016

Note: Actual official high and low records may vary slightly from our data, if they occured in-between our weather recording intervals... More about our weather records

Advertising

Clovis Weather History for the Previous 24 Hours

 ConditionsComfort  
Time TempWeatherWind HumidityBarometerVisibility
4:58 PM
Mon, Feb 8
50 °FSunny.1 mph25%30.35 "Hg10 mi
3:58 PM51 °FSunny.No wind24%30.35 "Hg10 mi
2:58 PM50 °FSunny.2 mph25%30.37 "Hg10 mi
1:58 PM49 °FSunny.3 mph26%30.40 "Hg10 mi
12:58 PM47 °FSunny.8 mph27%30.44 "Hg10 mi
11:58 AM43 °FSunny.8 mph31%30.47 "Hg10 mi
10:58 AM42 °FSunny.5 mph33%30.50 "Hg10 mi
9:58 AM38 °FSunny.2 mph38%30.51 "Hg10 mi
8:58 AM35 °FSunny.2 mph42%30.49 "Hg10 mi
7:58 AM28 °FSunny.9 mph56%30.51 "Hg10 mi
6:58 AM23 °FSunny.6 mph66%30.51 "Hg10 mi
5:58 AM22 °FClear.8 mph64%30.50 "Hg10 mi
4:58 AM22 °FClear.9 mph63%30.45 "Hg10 mi
3:58 AM22 °FClear.6 mph64%30.43 "Hg10 mi
2:58 AM23 °FClear.9 mph67%30.44 "Hg10 mi
1:58 AM23 °FClear.8 mph69%30.43 "Hg10 mi
12:58 AM24 °FClear.7 mph66%30.43 "Hg10 mi
11:58 PM
Sun, Feb 7
27 °FClear.9 mph60%30.42 "Hg10 mi
10:58 PM30 °FClear.13 mph59%30.39 "Hg10 mi
9:58 PM33 °FClear.14 mph53%30.37 "Hg10 mi
8:58 PM37 °FClear.16 mph45%30.33 "Hg10 mi
7:58 PM35 °FClear.8 mph53%30.31 "Hg10 mi
Weather by CustomWeather, © 2016

See weather overviewHow to use our weather pages